sat.trackr.live / text

‹ back to catalog

STARLINK-36674

NORAD 67661 · 2026-022P

PAYLOAD ACTIVE UNKNOWN

§ Identity

Operator
Country
US
Launch date
2026-02-02
Launch site
AFWTR
Launch vehicle
Mass (kg)
RCS (m²)

Purposes: comms

External: N2YO · Heavens-Above · Gunter

§ Orbital elements

Epoch: 2026-05-25T02:09:35.572320Z

Period
93.91 min
Inclination
97.2824°
Eccentricity
0.0001383
Mean motion
15.33453002 rev/d
Perigee alt
464.6 km
Apogee alt
466.5 km
Semi-major
6,843.7 km
B*
3.6577e-4
RAAN
178.3842°
Arg perigee
102.9477°
Mean anomaly
257.1920°
Rev number
1,728

§ Raw data

STARLINK-366741 67661U 26022P   26145.08999505  .00011755  00000+0  36577-3 0  99902 67661  97.2824 178.3842 0001383 102.9477 257.1920 15.33453002 17288

JSON: /api/v1/satellites/67661 · /tle

For live sub-satellite position, see the globe view (requires WebGL).

§ Visibility from observer

Set your observer location to see the next 7 days of passes ≥ 10°. The values pass through the URL so the page stays shareable.

No JS? Fill the form by hand. The geolocation button needs JavaScript.